Location: Ch�ze
(42.9000°N, 0.0333°W)
Time: 19:35:31
(UTC+00:00)

CZ-2C R/B - Pass Details

Date: 24 January 2021
Orbit: 785 x 870 km, 98.2° (Epoch: 08 March)

Event Time Altitude Azimuth Distance (km) Brightness Sun altitude
Exits shadow 19:51:53 34° 348° (NNW) 1,390 3.8 -30.9°
Maximum altitude 19:54:06 55° 289° (WNW) 1,035 3.3 -31.3°
Drops below altitude 10° 19:59:32 10° 213° (SSW) 2,510 5.4 -32.3°
Sets 20:01:57 0° 209° (SSW) 3,444 6.2 -32.7°
